www.pogodaiklimat.ru

Погода и климат >> Архив погоды >> Индия >> Уттар-Прадеш >> Варанаси аэропорт


ПОГОДА в Варанаси аэропорту

  • Прогноз погоды в Варанаси аэропорту
  • Монитор погоды в Варанаси аэропорту

АРХИВ ПОГОДЫ в Варанаси аэропорту

Время (UTC), дата Ветер
(напр.,м/с)
 
Видим.   Явления Облачность Т
(С)
Тd
(С)
f
(%)
Тe
(С)
Тes
(С)
Комфортность P
(гПа)
Po
(гПа)
Тmin
(С)
Tmax
(С)
R
(мм)
R24
(мм)
S
(см)
00 14.06 З 3 4000 м мгла 6/3 600 м
[Sc Ac trans]
+31.2 +21.8 57 +40 +40 очень
душно
997.8 988.3
03 14.06 З 4 2000 м мгла 3/0
[Ac trans]
+33.6 +21.5 49 +41 +47 опасность
перегрева
998.7 989.3 +31.1 +43.0
06 14.06 З 6 2000 м мгла 1/0
[Ac trans]
+39.0 +21.2 36 +46 +55 опасность
перегрева
997.8 988.6
09 14.06 З 4 4000 м мгла 1/1 750 м
[Cu hum]
+42.2 +20.2 28 +47 +56 опасность
перегрева
995.6 986.5
12 14.06 З 4 4000 м мгла 1/0
[Ac trans]
+42.2 +20.2 28 +47 +48 опасность
перегрева
993.9 984.8 +43.8
15 14.06 З 3 4000 м мгла 1/0
[Ac trans]
+36.8 +21.3 41 +44 +44 опасность
перегрева
996.0 986.7
18 14.06 ЮЗ 2 2000 м мгла ясно +35.0 +21.2 45 +43 +43 опасность
перегрева
996.7 987.3
00 15.06 З 3 2000 м мгла 1/0
[Ac trans]
+32.0 +21.3 53 +40 +40 очень
душно
996.1 986.7
03 15.06 З 5 4000 м мгла ясно +37.4 +22.4 42 +46 +51 опасность
перегрева
997.4 988.1 +31.8 +43.8
06 15.06 З 5 4000 м ясно +43.0 +22.9 32 +51 +63 опасность
перегрева
996.4 987.3
09 15.06 З 6 4000 м ясно +44.2 +22.3 29 +52 +58 опасность
перегрева
993.8 984.7
12 15.06 З 4 4000 м мгла ясно +42.6 +21.2 30 +49 +50 опасность
перегрева
992.2 983.1 +46.0
15 15.06 З 1 4000 м мгла 3/0
[Ac trans]
+37.6 +19.7 35 +43 +43 опасность
перегрева
995.1 985.8
18 15.06 З 4 4000 м мгла 1/0
[Ac trans]
+36.6 +16.7 31 +39 +39 очень
душно
997.0 987.7
00 16.06 ЮЗ 3 2000 м мгла 5/0
[Ac trans]
+33.2 +19.2 44 +39 +39 очень
душно
996.6 987.2
03 16.06 З 7 4000 м мгла ясно +37.6 +18.9 34 +42 +45 опасность
перегрева
997.1 987.8 +32.2 +46.0
06 16.06 З 7 4000 м пыльный позёмок ясно +40.0 +18.7 29 +44 +49 опасность
перегрева
996.6 987.4
09 16.06 З 8 4000 м пыльный позёмок ясно +42.4 +18.9 26 +46 +49 опасность
перегрева
994.7 985.6
12 16.06 З 4 4000 м пыльный позёмок ясно +39.6 +20.9 34 +46 +47 опасность
перегрева
993.9 984.7 +44.2
15 16.06 З 6 2000 м пыльный позёмок 6/4 750 м
[Cb cap Ac trans]
+37.4 +20.6 38 +44 +44 опасность
перегрева
997.6 988.3
18 16.06 З 3 2000 м мгла 8/3 750 м
[Sc Ac trans]
+33.4 +20.6 47 +40 +40 очень
душно
998.5 989.1
21 16.06 З 3 2000 м мгла 4/0
[Ac trans]
+32.0 +21.3 53 +40 +40 очень
душно
997.3 987.9
00 17.06 З 3 2000 м мгла 3/0
[Ac trans]
+29.6 +22.2 64
03 17.06 З 4 4000 м мгла ясно +33.6 +23.7 56 +45 +51 опасность
перегрева
999.9 990.5 +29.3 +44.2
06 17.06 З 6 4000 м мгла ясно +36.8 +19.8 37 +42 +50 опасность
перегрева
999.0 989.7
09 17.06 З 7 4000 м пыльный позёмок 1/1 600 м
[Sc]
+40.6 +18.3 28 +44 +48 опасность
перегрева
997.0 987.8
12 17.06 З 5 4000 м пыльный позёмок 4/0
[Ac trans]
+40.0 +17.9 28 +43 +44 опасность
перегрева
994.9 985.7 +41.5
15 17.06 З 7 2000 м пыльный позёмок 8/4 600 м
[Cb calv Ac trans]
+33.6 +18.6 41 +38 +38 очень
душно
998.4 989.0 1
18 17.06 З 3 2000 м мгла 8/3 600 м
[Sc Ac trans]
+31.8 +20.4 51 +39 +39 очень
душно
999.7 990.2
21 17.06 З 2 2000 м мгла 8/3 600 м
[Sc Ac trans]
+31.0 +21.5 57 +39 +39 очень
душно
998.8 989.3
00 18.06 З 3 2000 м мгла 4/3 600 м
[Sc Ac trans]
+30.2 +22.6 64 +40 +40 очень
душно
998.7 989.2 1
03 18.06 З 7 2000 м мгла ясно +33.6 +21.2 48 +41 +44 опасность
перегрева
1000.4 991.0 +29.1 +41.5
06 18.06 З 4 4000 м мгла ясно +37.8 +18.8 33 +42 +58 опасность
перегрева
999.7 990.4
09 18.06 З 5 4000 м 1/1 750 м
[Cu hum]
+39.8 +18.8 30 +44 +52 опасность
перегрева
997.4 988.2
12 18.06 СЗ 5 4000 м 4/1 750 м
[Sc Ac trans]
+39.2 +18.8 31 +43 +44 опасность
перегрева
995.6 986.4 +41.6
15 18.06 З 2 4000 м мгла 3/0
[Ac trans]
+34.8 +20.5 43 +41 +41 опасность
перегрева
998.1 988.7
18 18.06 З 1 4000 м мгла 3/0
[Ac trans]
+33.8 +20.7 46 +41 +41 опасность
перегрева
999.2 989.8
00 19.06 СЗ 2 2000 м мгла 3/0
[Ac trans]
+30.6 +20.7 56 +38 +38 очень
душно
998.9 989.4
03 19.06 С 4 2000 м мгла 8/3 750 м
[Sc Ac trans]
+34.0 +19.5 43 +40 +42 очень
душно
1000.3 990.9 +29.4 +41.6
06 19.06 СЗ 2 4000 м мгла 8/4 750 м
[Sc Ac trans]
+37.6 +18.9 34 +42 +51 опасность
перегрева
1000.0 990.7
09 19.06 С 4 2000 м в посл. час морось 9/5 600 м
[Sc Ac trans]
+34.8 +20.9 44 +42 +44 опасность
перегрева
999.1 989.7 0.0
12 19.06 С 4 2000 м мгла 8/4 600 м
[Sc Ac trans]
+34.4 +21.1 46 +42 +42 опасность
перегрева
997.5 988.1 +39.2 0.0
15 19.06 З 1 2000 м мгла 8/4 750 м
[Sc Ac trans]
+32.6 +21.0 51 +40 +40 очень
душно
999.6 990.1 0.0
18 19.06 штиль 0 2000 м мгла 8/4 600 м
[Sc Ac trans]
+31.4 +19.9 51 +38 +38 очень
душно
1000.8 991.3 0.0
21 19.06 СВ 2 2000 м мгла {дождь} 8/4 600 м
[Sc Ac trans]
+30.4 +19.8 53 +37 +37 очень
душно
999.8 990.3 0.2
00 20.06 СВ 2 2000 м мгла {дождь} 9/4 600 м
[Cb calv Ac trans]
+29.0 +20.6 61 +36 +36 очень
душно
1000.1 990.5 0.2
03 20.06 СВ 3 2000 м мгла 6/3 600 м
[Sc Ac trans]
+33.6 +20.5 46 +40 +45 очень
душно
1001.1 991.7 +28.0 +39.2 0.2
06 20.06 ЮВ 3 4000 м мгла 8/3 750 м
[Sc Ac trans]
+37.2 +19.2 35 +42 +50 опасность
перегрева
1000.4 991.1
09 20.06 СЗ 2 4000 м мгла 3/0
[Ac trans]
+29.6 +19.3 54 +35 +49 очень
душно
997.6 988.1
12 20.06 С 2 4000 м мгла 4/4 750 м
[Cb calv]
+38.4 +20.0 34 +44 +45 опасность
перегрева
995.7 986.5 +41.0
15 20.06 ЮВ 4 4000 м в посл. час дождь 6/4 750 м
[Cb calv Ac trans]
+32.0 +23.3 60 +43 +43 опасность
перегрева
998.5 989.0 0.4
18 20.06 штиль 0 2000 м мгла {дождь} 3/0
[Ac trans]
+31.8 +23.4 61 +43 +43 опасность
перегрева
1000.1 990.6 0.4

 

Местоположение метеостанции Варанаси аэропорт (Уттар-Прадеш, Индия): широта 25.45 долгота 82.86 высота над уровнем моря 85 м.

В архиве по умолчанию представлена погода в Варанаси аэропорту за последнюю неделю. Архивные данные за месяц целиком и за предыдущие месяцы, начиная с января 2011 года, Вы можете получить, выбрав интересующий диапазон дат из раскрывающегося списка и нажав кнопку "Ввод!".


*Определитесь, кто Вы:
робот инопланетянин человек

Внимание! Время в таблицах - всемирное. Для получения местного времени необходимо прибавить поправку, которая равна 5.5 ч.

Смотрите также архив погоды в соседних городах и на ближайших метеорологических станциях:

Погода в Варанаси (Уттар-Прадеш, Индия) (23 км)
Погода в Гхазипуре (Уттар-Прадеш, Индия) (70 км)
Погода в Аллахабаде (Уттар-Прадеш, Индия) (113 км)
Погода в Султанпуре (Уттар-Прадеш, Индия) (121 км)
Погода в Дехри (Бихар, Индия) (145 км)
Погода в Сидхи (Мадхья-Прадеш, Индия) (152 км)
Погода в Горакпуре (Уттар-Прадеш, Индия) (153 км)
Погода в Ферсатгиндже (Уттар-Прадеш, Индия) (174 км)
Погода в Реве (Мадхья-Прадеш, Индия) (188 км)
Погода в Чхапре (Бихар, Индия) (191 км)

Пояснения к столбцам:

Ветер - указаны скорость ветра в м/с - средняя за 10 мин, порывы в срок и между сроками (в фигурных скобках) и направление, откуда дует ветер: С - северный, СВ - северо-восточный, В - восточный, ЮВ - юго-восточный, Ю - южный, ЮЗ - юго-западный, З - западный, СЗ - северо-западный.
Видимость - горизонтальная дальность видимости в метрах или километрах. При видимости от 1 до 10 км при отсутствии осадков обычно наблюдается дымка, при ухудшении видимости до 1 км и менее - туман. В сухую погоду видимость может ухудшаться дымом, пылью или мглою.
Явления - указаны атмосферные явления, наблюдавшиеся в срок или в последний час перед сроком; фигурными скобками обозначены явления, наблюдавшиеся между сроками (за 1-3 часа до срока); квадратными скобками обозначены град или гололедные отложения с указанием их диаметра в мм.
Облачность - указаны через наклонную черту общая и нижняя облачность в баллах и высота нижней границы облаков в метрах; квадратными скобками обозначены формы облаков: Ci - перистые, Cs - перисто-слоистые, Cc - перисто-кучевые, Ac - высококучевые, As - высокослоистые, Sc - слоисто-кучевые, Ns - слоисто-дождевые, Cu - кучевые, Cb - кучево-дождевые. Подробнее классификацию облаков см. в Атласе облаков (PDF).
T - Температура воздуха - температура, измеренная на высоте 2 м над землей.
Td - Температура точки росы - температура, при понижении до которой содержащийся в воздухе водяной пар достигнет насыщения.
f - Относительная влажность воздуха - влажноcть воздуха, измеренная на высоте 2 м над землей.
Te - Эффективная температура - температура, которую ощущает одетый по сезону человек в тени. Характеристика душности погоды. При расчете учитывается влияние влажности воздуха и скорости ветра на теплоощущения человека.
Tes - Эффективная температура на солнце - температура, которую ощущает человек, с поправкой на солнечный нагрев. Характеристика знойности погоды. Зависит от высоты солнца над горизонтом, облачности и скорости ветра. Ночью, в пасмурную погоду, а также при ветре 12 м/с и более поправка равна нулю.
P - Атмосферное давление - приведенное к уровню моря атмосферное давление.
Po - Атмосферное давление - измеренное на уровне метеостанции атмосферное давление.
Tmin - Минимальная температура - минимум температуры воздуха на высоте 2 м над землей.
Tmax - Максимальная температура - максимум температуры воздуха на высоте 2 м над землей.
R - Количество осадков - Количество выпавших осадков за период времени, мм. При наведении курсора мыши на число - период времени, за который выпало указанное количество осадков.
R24 - Количество осадков - Количество выпавших осадков за 24 часа, мм.
S - Снежный покров - Высота снежного покрова, см. При наведении курсора мыши на число - состояние снежного покрова и степень покрытия местности в баллах.